Вернуться в каталог

GHGSAT-C8

АктивенНаукаSSO
NORAD 56186·PAYLOAD·🇨🇦 Canada

Запущен Apr 15, 2023 с Vandenberg Space Force Base

Loading…

Ближайшие Пролёты (ближайшие 24 часа)

TLE

СвежийSource: Space-Track

Эпоха: Sep 14, 2026, 14:09 UTC

1 56186U 23054J   26257.59011454  .00013953  00000-0  20626-3 0  9991
2 56186  97.2894 168.4538 0006496  96.1830 264.0165 15.55410427192329

Отслеживайте GHGSAT-C8 в реальном времени с AllMySat

Download on the App Store